• In Deutschland
  • Länderverzeichnis
  • Für 7 Tage
  • Wassertemperatur
  • Satellitenkarten
  • Wetterkarte
  • Widgets
  • user-avatar
    Anmelden

    Stündliche Wetter Satif

    Heute, 26 April, Donnerstag

    Zeit Temperatur Niederschläge Wind Luftdruck Luftfeuchtigkeit
    00:00 +13°C° 0,2 mm 4 m/S 667 mmHg 86%
    01:00 +13°C° 0,3 mm 3 m/S 667 mmHg 88%
    02:00 +12°C° 0,3 mm 3 m/S 667 mmHg 89%
    03:00 +12°C° 0,3 mm 3 m/S 666 mmHg 90%
    04:00 +12°C° 0 mm 3 m/S 666 mmHg 90%
    05:00 +12°C° 0 mm 3 m/S 666 mmHg 90%
    06:00 +12°C° 0 mm 3 m/S 666 mmHg 90%
    07:00 +13°C° 0 mm 3 m/S 666 mmHg 81%
    08:00 +16°C° 0 mm 3 m/S 666 mmHg 72%
    09:00 +17°C° 0 mm 4 m/S 667 mmHg 64%
    10:00 +18°C° 0 mm 4 m/S 667 mmHg 60%
    11:00 +20°C° 0 mm 4 m/S 667 mmHg 57%
    12:00 +21°C° 0 mm 4 m/S 667 mmHg 54%
    13:00 +20°C° 1,2 mm 4 m/S 666 mmHg 59%
    14:00 +19°C° 1,2 mm 5 m/S 666 mmHg 64%
    15:00 +17°C° 1,2 mm 5 m/S 666 mmHg 69%
    16:00 +16°C° 1,6 mm 5 m/S 666 mmHg 74%
    17:00 +15°C° 1,6 mm 5 m/S 666 mmHg 79%
    18:00 +14°C° 1,6 mm 5 m/S 666 mmHg 84%
    19:00 +13°C° 0,4 mm 5 m/S 666 mmHg 85%
    20:00 +13°C° 0,4 mm 4 m/S 666 mmHg 86%
    21:00 +13°C° 0,4 mm 4 m/S 667 mmHg 88%
    22:00 +12°C° 0,1 mm 4 m/S 667 mmHg 88%
    23:00 +12°C° 0,1 mm 4 m/S 667 mmHg 89%

    Morgen, 27 April, Freitag

    Zeit Temperatur Niederschläge Wind Luftdruck Luftfeuchtigkeit
    00:00 +12°C° 0,1 mm 4 m/S 666 mmHg 89%
    01:00 +12°C° 0,1 mm 4 m/S 666 mmHg 89%
    02:00 +12°C° 0,1 mm 4 m/S 666 mmHg 90%
    03:00 +12°C° 0,1 mm 5 m/S 666 mmHg 90%
    04:00 +12°C° 0,1 mm 5 m/S 666 mmHg 89%
    05:00 +10°C° 0,1 mm 5 m/S 666 mmHg 88%
    06:00 +10°C° 0,1 mm 5 m/S 667 mmHg 87%
    07:00 +12°C° 0,1 mm 5 m/S 667 mmHg 83%
    08:00 +12°C° 0,1 mm 5 m/S 668 mmHg 80%
    09:00 +12°C° 0,1 mm 5 m/S 668 mmHg 76%
    10:00 +13°C° 0 mm 5 m/S 668 mmHg 72%
    11:00 +14°C° 0 mm 5 m/S 669 mmHg 68%
    12:00 +15°C° 0 mm 5 m/S 669 mmHg 63%
    13:00 +15°C° 0 mm 6 m/S 669 mmHg 62%
    14:00 +15°C° 0 mm 6 m/S 669 mmHg 61%
    15:00 +15°C° 0 mm 6 m/S 669 mmHg 59%
    16:00 +14°C° 0 mm 5 m/S 669 mmHg 63%
    17:00 +13°C° 0 mm 5 m/S 669 mmHg 66%
    18:00 +13°C° 0 mm 4 m/S 669 mmHg 70%
    19:00 +12°C° 0 mm 3 m/S 669 mmHg 75%
    20:00 +11°C° 0 mm 3 m/S 670 mmHg 80%
    21:00 +10°C° 0 mm 2 m/S 670 mmHg 85%
    22:00 +10°C° 0 mm 2 m/S 670 mmHg 85%
    23:00 +10°C° 0 mm 1 m/S 669 mmHg 84%

    übermorgen, 28 April, Samstag

    Zeit Temperatur Niederschläge Wind Luftdruck Luftfeuchtigkeit
    00:00 +10°C° 0 mm 1 m/S 669 mmHg 84%
    01:00 +10°C° 0 mm 1 m/S 669 mmHg 84%
    02:00 +9°C° 0 mm 1 m/S 669 mmHg 83%
    03:00 +9°C° 0 mm 1 m/S 669 mmHg 82%
    04:00 +10°C° 0 mm 1 m/S 669 mmHg 79%
    05:00 +10°C° 0 mm 1 m/S 669 mmHg 75%
    06:00 +11°C° 0 mm 1 m/S 670 mmHg 71%
    07:00 +13°C° 0 mm 1 m/S 670 mmHg 63%
    08:00 +15°C° 0 mm 1 m/S 671 mmHg 54%
    09:00 +16°C° 0 mm 1 m/S 672 mmHg 46%
    10:00 +19°C° 0 mm 1 m/S 672 mmHg 43%
    11:00 +20°C° 0 mm 1 m/S 672 mmHg 40%
    12:00 +21°C° 0 mm 1 m/S 672 mmHg 37%
    13:00 +21°C° 0 mm 1 m/S 671 mmHg 37%
    14:00 +22°C° 0 mm 1 m/S 671 mmHg 37%
    15:00 +22°C° 0 mm 1 m/S 671 mmHg 36%
    16:00 +21°C° 0 mm 1 m/S 670 mmHg 41%
    17:00 +21°C° 0 mm 1 m/S 670 mmHg 46%
    18:00 +19°C° 0 mm 2 m/S 670 mmHg 50%
    19:00 +19°C° 0 mm 1 m/S 670 mmHg 54%
    20:00 +18°C° 0 mm 1 m/S 670 mmHg 58%
    21:00 +16°C° 0 mm 1 m/S 670 mmHg 62%
    22:00 +15°C° 0 mm 1 m/S 670 mmHg 60%
    23:00 +15°C° 0 mm 2 m/S 669 mmHg 58%

    29 April, Sonntag

    Zeit Temperatur Niederschläge Wind Luftdruck Luftfeuchtigkeit
    00:00 +15°C° 0 mm 2 m/S 669 mmHg 56%
    01:00 +15°C° 0 mm 2 m/S 668 mmHg 54%
    02:00 +14°C° 0 mm 2 m/S 668 mmHg 52%
    03:00 +14°C° 0 mm 2 m/S 668 mmHg 50%
    04:00 +15°C° 0 mm 2 m/S 668 mmHg 51%
    05:00 +15°C° 0 mm 2 m/S 669 mmHg 51%
    06:00 +15°C° 0 mm 2 m/S 669 mmHg 52%
    07:00 +16°C° 0 mm 3 m/S 669 mmHg 51%
    08:00 +17°C° 0 mm 3 m/S 670 mmHg 50%
    09:00 +17°C° 0 mm 4 m/S 671 mmHg 49%
    10:00 +18°C° 0 mm 4 m/S 671 mmHg 47%
    11:00 +19°C° 0 mm 5 m/S 671 mmHg 45%
    12:00 +20°C° 0 mm 5 m/S 671 mmHg 43%
    13:00 +19°C° 0,1 mm 5 m/S 671 mmHg 47%
    14:00 +19°C° 0,1 mm 5 m/S 671 mmHg 52%
    15:00 +17°C° 0,1 mm 5 m/S 671 mmHg 56%
    16:00 +15°C° 0,2 mm 5 m/S 671 mmHg 62%
    17:00 +14°C° 0,2 mm 5 m/S 671 mmHg 69%
    18:00 +12°C° 0,2 mm 5 m/S 671 mmHg 75%
    19:00 +11°C° 0,4 mm 4 m/S 671 mmHg 77%
    20:00 +10°C° 0,4 mm 3 m/S 672 mmHg 78%
    21:00 +9°C° 0,4 mm 3 m/S 672 mmHg 80%
    22:00 +9°C° 0,3 mm 2 m/S 672 mmHg 78%
    23:00 +9°C° 0,3 mm 2 m/S 672 mmHg 77%

    30 April, Montag

    Zeit Temperatur Niederschläge Wind Luftdruck Luftfeuchtigkeit
    00:00 +9°C° 0,3 mm 2 m/S 672 mmHg 75%
    01:00 +9°C° 0,1 mm 1 m/S 672 mmHg 75%
    02:00 +9°C° 0,1 mm 1 m/S 671 mmHg 74%
    03:00 +9°C° 0,1 mm 1 m/S 671 mmHg 74%
    04:00 +9°C° 0 mm 1 m/S 671 mmHg 73%
    05:00 +8°C° 0 mm 2 m/S 671 mmHg 72%
    06:00 +8°C° 0 mm 2 m/S 671 mmHg 70%
    07:00 +10°C° 0 mm 2 m/S 671 mmHg 63%
    08:00 +12°C° 0 mm 2 m/S 672 mmHg 55%
    09:00 +14°C° 0 mm 2 m/S 672 mmHg 48%
    10:00 +15°C° 0 mm 2 m/S 672 mmHg 47%
    11:00 +17°C° 0 mm 2 m/S 672 mmHg 45%
    12:00 +18°C° 0 mm 2 m/S 672 mmHg 44%
    13:00 +18°C° 0 mm 3 m/S 672 mmHg 45%
    14:00 +19°C° 0 mm 3 m/S 671 mmHg 45%
    15:00 +19°C° 0 mm 4 m/S 671 mmHg 46%
    16:00 +18°C° 0 mm 3 m/S 670 mmHg 51%
    17:00 +17°C° 0 mm 3 m/S 670 mmHg 56%
    18:00 +16°C° 0 mm 2 m/S 669 mmHg 60%
    19:00 +15°C° 0,2 mm 2 m/S 669 mmHg 67%
    20:00 +13°C° 0,2 mm 2 m/S 669 mmHg 73%
    21:00 +12°C° 0,2 mm 2 m/S 669 mmHg 79%
    22:00 +12°C° 0,4 mm 1 m/S 669 mmHg 82%
    23:00 +11°C° 0,4 mm 1 m/S 668 mmHg 84%

    1 Mai, Dienstag

    Zeit Temperatur Niederschläge Wind Luftdruck Luftfeuchtigkeit
    00:00 +11°C° 0,4 mm 1 m/S 668 mmHg 86%
    01:00 +11°C° 0,2 mm 1 m/S 668 mmHg 87%
    02:00 +11°C° 0,2 mm 1 m/S 667 mmHg 88%
    03:00 +10°C° 0,2 mm 1 m/S 667 mmHg 89%
    04:00 +11°C° 0 mm 1 m/S 667 mmHg 87%
    05:00 +11°C° 0 mm 1 m/S 667 mmHg 86%
    06:00 +11°C° 0 mm 1 m/S 667 mmHg 84%
    07:00 +13°C° 0 mm 2 m/S 667 mmHg 78%
    08:00 +15°C° 0 mm 2 m/S 667 mmHg 72%
    09:00 +16°C° 0 mm 3 m/S 668 mmHg 66%
    10:00 +17°C° 0,2 mm 3 m/S 667 mmHg 64%
    11:00 +17°C° 0,2 mm 3 m/S 667 mmHg 63%
    12:00 +18°C° 0,2 mm 4 m/S 667 mmHg 62%
    13:00 +17°C° 0,4 mm 4 m/S 667 mmHg 65%
    14:00 +15°C° 0,4 mm 5 m/S 666 mmHg 69%
    15:00 +14°C° 0,4 mm 5 m/S 665 mmHg 72%
    16:00 +13°C° 0,2 mm 5 m/S 665 mmHg 75%
    17:00 +12°C° 0,2 mm 5 m/S 665 mmHg 78%
    18:00 +10°C° 0,2 mm 5 m/S 665 mmHg 82%
    19:00 +10°C° 0,9 mm 4 m/S 665 mmHg 84%
    20:00 +10°C° 0,9 mm 4 m/S 666 mmHg 86%
    21:00 +9°C° 0,9 mm 3 m/S 666 mmHg 88%
    22:00 +7°C° 2,7 mm 4 m/S 666 mmHg 86%
    23:00 +7°C° 2,7 mm 4 m/S 665 mmHg 85%
    Mehr zeigen